Location: Buchdorf
(48.7842°N, 10.8275°E)
Time: 18:04:22
(UTC+00:00)

USA 32 - Pass Details

Date: 09 April 2020
Orbit: 777 x 783 km, 85.0° (Epoch: 22 April)

Event Time Altitude Azimuth Distance (km) Brightness Sun altitude
Rises 20:17:37 0° 355° (N) 3,275 8.0 -20.9°
Reaches altitude 10° 20:20:00 10° 359° (N) 2,342 7.1 -21.1°
Maximum altitude 20:25:14 67° 82° (E) 845 4.0 -21.8°
Enters shadow 20:26:23 51° 139° (SE) 973 4.1 -21.9°
